This demonstration page uses our WeatherBlox Daily Observations layout. Learn more.

Left ArrowRight Arrow

36.17497, -115.13722

Hourly Observations for August 23, 2016

Temp ( °F °C ) Dew Point ( °F °C ) Humidity (%) Winds ( mph kmh ) Pressure ( in mb ) Visibility ( mi km ) Precip ( " mm )
12:53 am 00:53 Clear with Rain 72 22.2 60 15.6 66 66 S 5 7 30.02 1017 10 16.0934 0 0.0254
1:53 am 01:53 Clear with Rain 72 22.2 59 15 64 64 SSE 5 7 30.01 1016 10 16.0934 0 0.0254
2:53 am 02:53 Mostly Clear with Rain 71 21.7 60 15.6 68 68 ESE 7 11 29.98 1015 10 16.0934 0 0.0254
3:53 am 03:53 Clear with Rain 70 21.1 62 16.7 76 76 ESE 8 13 29.97 1015 10 16.0934 0 0.0254
4:53 am 04:53 Clear with Rain 70 21.1 61 16.1 73 73 Calm 29.98 1015 10 16.0934 0 0.0254
5:53 am 05:53 Clear with Rain 71 21.7 61 16.1 71 71 WNW 3 6 30.01 1016 10 16.0934 0 0.0254
6:53 am 06:53 Sunny with Rain 71 21.7 60 15.6 68 68 SSE 3 6 30.03 1017 10 16.0934 0 0.0254
7:53 am 07:53 Sunny with Rain 71 21.7 62 16.7 73 73 Calm 30.06 1018 10 16.0934 0 0.0254
8:53 am 08:53 Sunny with Rain 75 23.9 61 16.1 62 62 ENE 3 6 30.08 1019 10 16.0934 0 0.0254
9:53 am 09:53 Sunny with Rain 77 25 59 15 54 54 Calm 30.08 1019 10 16.0934 0 0.0254
10:53 am 10:53 Sunny with Rain 79 26.1 59 15 50 50 SSE 8 13 30.07 1018 10 16.0934 0 0.0254
11:53 am 11:53 Sunny with Rain 82 27.8 57 13.9 42 42 SE 8 13 30.06 1018 10 16.0934 0 0.0254
12:53 pm 12:53 Sunny with Rain 85 29.4 56 13.3 37 37 ESE 10 17 30.04 1017 10 16.0934 0 0.0254
1:53 pm 13:53 Sunny with Rain 86 30 56 13.3 36 36 ENE 6 9 30.01 1016 10 16.0934 0 0.0254
2:53 pm 14:53 Sunny with Rain 88 31.1 56 13.3 34 34 ESE 7 11 29.98 1015 10 16.0934 0 0.0254
3:53 pm 15:53 Sunny with Rain 90 32.2 56 13.3 32 32 E 9 15 29.95 1014 10 16.0934 0 0.0254
4:53 pm 16:53 Sunny with Rain 86 30 55 12.8 35 35 E 6 9 29.93 1014 10 16.0934 0 0.0254
5:53 pm 17:53 Sunny with Rain 90 32.2 55 12.8 31 31 E 6 9 29.92 1013 10 16.0934 0 0.0254
6:53 pm 18:53 Sunny with Rain 89 31.7 55 12.8 31 31 E 6 9 29.93 1013 10 16.0934 0 0.0254
7:53 pm 19:53 Clear with Rain 86 30 54 12.2 33 33 E 7 11 29.94 1014 10 16.0934 0 0.0254
8:53 pm 20:53 Clear with Rain 87 30.6 54 12.2 32 32 E 9 15 29.97 1015 10 16.0934 0 0.0254
9:53 pm 21:53 Clear with Rain 86 30 57 13.9 37 37 Calm 29.98 1015 10 16.0934 0 0.0254
10:53 pm 22:53 Mostly Clear with Rain 86 30 59 15 40 40 WNW 7 11 29.99 1016 10 16.0934 0 0.0254
11:16 pm 23:16 Mostly Clear with Rain 85 29.4 46 7.8 26 26 NNW 21 33 29.88 1012 10 16.0934 0 0.0254
11:53 pm 23:53 Partly Cloudy with Rain 78 25.6 58 14.4 50 50 SW 12 19 29.99 1016 10 16.0934 0 0.0254

Powered by AerisWeather